Location: Dürabuch
(48.2640°N, 11.2185°E)
Time: 23:02:04
(UTC+00:00)

RESURS DK-1 - Pass Details

Date: 23 May 2024
Orbit: 541 x 547 km, 69.9° (Epoch: 14 June)

Event Time Altitude Azimuth Distance (km) Brightness Sun altitude
Rises 02:04:19 0° 328° (NNW) 2,721 6.1 -11.0°
Reaches altitude 10° 02:06:32 10° 326° (NNW) 1,825 5.2 -10.8°
Maximum altitude 02:10:34 69° 244° (WSW) 589 2.2 -10.4°
Drops below altitude 10° 02:14:36 10° 161° (SSE) 1,814 4.7 -9.9°
Sets 02:16:47 0° 159° (SSE) 2,703 5.6 -9.7°
